Location: Unspecified
(0.0000°N, 0.0000°E)
Time: 10:17:44
(UTC+00:00)

Vanguard 3 - All Passes

Search period start: 27 March 2015 00:00
Search period end: 06 April 2015 00:00
Orbit: 510 x 3272 km, 33.3° (Epoch: 26 March)

Date Brightness Start Highest point End Pass type
(mag) Time Alt. Az. Time Alt. Az. Time Alt. Az.
27 Mar - 00:31:02 10° WNW 00:46:35 27° NNW 01:00:48 10° NNE visible
27 Mar - 03:00:00 10° NW 03:08:11 14° N 03:14:47 10° NNE visible
27 Mar - 05:22:02 10° NNW 05:28:08 14° N 05:33:08 10° NE visible
27 Mar - 07:36:09 10° NW 07:44:15 34° NNE 07:49:17 10° E daylight
27 Mar - 09:51:15 10° WNW 09:56:31 33° SW 10:00:13 10° SSE daylight
27 Mar - 18:46:30 10° SSW 18:55:40 38° SE 19:10:40 10° ENE visible
27 Mar - 20:57:34 10° WSW 21:10:56 81° NW 21:30:56 10° NE visible
27 Mar - 23:13:42 10° W 23:29:33 38° NNW 23:46:46 10° NNE visible
28 Mar - 01:38:38 10° NW 01:50:53 18° NNW 02:01:06 10° NNE visible
28 Mar - 04:05:35 10° NNW 04:12:22 14° N 04:18:05 10° NNE visible
28 Mar - 06:21:50 10° NNW 06:30:25 24° NNE 06:36:15 10° ENE daylight
28 Mar - 08:36:31 10° NW 08:44:26 89° SW 08:49:06 10° SE daylight
28 Mar - 17:36:06 10° S 17:42:01 20° SE 17:51:02 10° E daylight
28 Mar - 19:45:03 10° SW 19:56:06 71° SE 20:14:32 10° ENE visible
28 Mar - 21:58:27 10° WSW 22:12:59 52° NNW 22:32:02 10° NE visible
29 Mar - 00:18:48 10° WNW 00:33:23 24° NNW 00:47:05 10° NNE visible
29 Mar - 02:46:40 10° NNW 02:55:35 15° N 03:03:02 10° NNE visible
29 Mar - 05:06:52 10° NNW 05:15:38 19° NNE 05:22:14 10° NE visible
29 Mar - 07:21:55 10° NW 07:31:36 48° NNE 07:37:11 10° ESE daylight
29 Mar - 09:38:27 10° W 09:43:37 25° SW 09:47:14 10° SSE daylight
29 Mar - 18:33:25 10° SSW 18:42:11 44° SE 18:57:03 10° ENE visible
29 Mar - 20:44:43 10° WSW 20:57:13 71° NNW 21:16:35 10° NE visible
29 Mar - 23:01:18 10° W 23:16:07 33° NNW 23:32:36 10° NNE visible
30 Mar - 01:26:20 10° NW 01:38:04 17° N 01:48:13 10° NNE visible
30 Mar - 03:50:44 10° NNW 03:59:50 17° N 04:07:13 10° NE visible
30 Mar - 06:07:08 10° NW 06:17:48 32° NNE 06:24:29 10° E daylight
30 Mar - 08:22:56 10° WNW 08:31:32 66° SW 08:36:30 10° SE daylight
30 Mar - 17:22:52 10° S 17:28:51 22° SE 17:38:11 10° E daylight
30 Mar - 19:32:06 10° SW 19:42:27 81° SE 20:00:21 10° ENE visible
30 Mar - 21:45:51 10° W 21:59:27 44° NNW 22:17:38 10° NE visible
31 Mar - 00:06:44 10° WNW 00:20:18 22° NNW 00:33:23 10° NNE visible
31 Mar - 02:32:59 10° NNW 02:42:58 16° N 02:51:29 10° NE visible
31 Mar - 04:51:54 10° NNW 05:03:01 24° NNE 05:10:49 10° ENE visible
31 Mar - 07:07:44 10° NW 07:18:47 65° NNE 07:24:52 10° ESE daylight
31 Mar - 09:25:46 10° W 09:30:39 20° SW 09:34:06 10° S daylight
31 Mar - 18:20:24 10° SSW 18:28:41 50° SE 18:43:15 10° ENE visible
31 Mar - 20:32:00 10° WSW 20:43:39 61° NNW 21:02:06 10° NE visible
31 Mar - 22:49:05 10° WNW 23:02:49 29° NNW 23:18:23 10° NNE visible
01 Apr - 01:13:50 10° NW 01:25:17 17° N 01:35:33 10° NNE visible
01 Apr - 03:35:58 10° NNW 03:47:10 20° NNE 03:55:59 10° NE visible
01 Apr - 05:52:31 10° NW 06:05:02 42° NNE 06:12:26 10° E daylight
01 Apr - 08:09:22 10° WNW 08:18:30 50° SW 08:23:45 10° SE daylight
01 Apr - 17:09:42 10° SSW 17:15:37 26° SE 17:25:07 10° E daylight
01 Apr - 19:19:16 10° SW 19:28:55 86° NW 19:46:01 10° NE visible
01 Apr - 21:33:28 10° W 21:46:04 38° NNW 22:03:06 10° NE visible
01 Apr - 23:54:45 10° NW 00:07:19 20° N 00:19:47 10° NNE visible
02 Apr - 02:19:02 10° NNW 02:30:15 18° N 02:39:57 10° NE visible
02 Apr - 04:37:02 10° NNW 04:50:14 31° NNE 04:59:02 10° E visible
02 Apr - 06:53:34 10° NW 07:05:47 84° NE 07:12:22 10° ESE daylight
02 Apr - 09:13:15 10° W 09:17:39 16° SW 09:20:46 10° S daylight
02 Apr - 18:07:29 10° SW 18:15:14 59° SE 18:29:19 10° ENE visible
02 Apr - 20:19:25 10° WSW 20:30:15 51° NNW 20:47:30 10° NE visible
02 Apr - 22:37:05 10° WNW 22:49:42 25° NNW 23:04:07 10° NNE visible
03 Apr - 01:01:04 10° NW 01:12:30 17° N 01:23:10 10° NE visible
03 Apr - 03:21:14 10° NNW 03:34:22 24° NNE 03:44:25 10° ENE visible
03 Apr - 05:37:54 10° NW 05:52:05 53° NNE 06:00:09 10° ESE visible
03 Apr - 07:55:52 10° WNW 08:05:21 40° SW 08:10:53 10° SSE daylight
03 Apr - 16:56:35 10° SSW 17:02:23 30° SE 17:11:54 10° E daylight
03 Apr - 19:06:34 10° WSW 19:15:31 73° NNW 19:31:34 10° NE visible
03 Apr - 21:21:16 10° W 21:32:52 32° NNW 21:48:28 10° NNE visible
03 Apr - 23:42:45 10° NW 23:54:25 19° N 00:06:19 10° NNE visible
04 Apr - 02:04:55 10° NNW 02:17:27 20° N 02:28:21 10° NE visible
04 Apr - 04:22:14 10° NW 04:37:16 38° NNE 04:46:59 10° E visible
04 Apr - 06:39:25 10° WNW 06:52:36 79° SW 06:59:41 10° SE daylight
04 Apr - 09:01:01 10° WSW 09:04:37 13° SW 09:07:11 10° SSW daylight
04 Apr - 15:47:55 10° SSE 15:49:45 11° SE 15:52:23 10° ESE daylight
04 Apr - 17:54:37 10° SW 18:01:53 71° SE 18:15:17 10° ENE daylight
04 Apr - 20:07:01 10° W 20:17:02 42° NNW 20:32:47 10° NE visible
04 Apr - 22:25:16 10° WNW 22:36:41 22° NNW 22:49:50 10° NNE visible
05 Apr - 00:48:00 10° NNW 00:59:40 18° N 01:10:58 10° NE visible
05 Apr - 03:06:31 10° NNW 03:21:23 29° NNE 03:32:34 10° ENE visible
05 Apr - 05:23:20 10° NW 05:38:55 66° NNE 05:47:39 10° ESE visible
05 Apr - 07:42:25 10° WNW 07:52:06 34° SW 07:57:54 10° SSE daylight
05 Apr - 16:43:33 10° SSW 16:49:08 36° SE 16:58:31 10° ENE daylight
05 Apr - 18:53:58 10° WSW 19:02:16 60° NNW 19:17:02 10° NE visible
05 Apr - 21:09:17 10° WNW 21:19:48 27° NNW 21:33:46 10° NNE visible
